Zurück zum Katalog

CENTISPACE-2 S1

AktivNavigationLEO
NORAD 68350·PAYLOAD·🇨🇳 China

Gestartet Mar 22, 2026 von Yellow Sea Launch Area

Loading…

Nächste Überflüge (nächste 24 Stunden)

TLE

AktuellSource: Space-Track

Epoche: Sep 13, 2026, 22:33 UTC

1 68350U 26060A   26256.93973463 -.00000041  00000-0  50767-4 0  9996
2 68350  54.9829  51.1830 0010778 254.6190 105.3595 14.23217323 25596

Verfolge CENTISPACE-2 S1 in Echtzeit mit AllMySat

Download on the App Store